Leesburg, VA

12:35 AM EDT on August 21, 2019 (GMT -0400)
Leesburg Executive

Weather History for KJYO - April, 2019

Change the Weather History Date:

Tuesday, April 23, 2019

  Actual Average (KIAD) Record (KIAD)
Temperature  
Mean Temperature 65 °F -  
Max Temperature 84 °F 68 °F 88 °F (2001)
Min Temperature 46 °F 43 °F 30 °F (1989)
Growing Degree Days 15 (Base 50)    
Moisture  
Dew Point 51 °F    
Average Humidity 58    
Maximum Humidity 100    
Minimum Humidity 32    
Precipitation  
Precipitation 0.00 in - - ()
Sea Level Pressure  
Sea Level Pressure 29.97 in    
Wind  
Wind Speed 5 mph (SW)    
Max Wind Speed 17 mph    
Max Gust Speed 22 mph    
Visibility 10 miles    
Events      
Averages and records for this station are not official NWS values.
T = Trace of Precipitation, MM = Missing Value Source: NWS Daily Summary

Daily Weather History Graph

Daily Weather History Graph

Search for Another Location

Airport or City:

Astronomy

Apr. 23, 2019 Rise Set
Actual Time 6:22 AM EDT 7:55 PM EDT
Civil Twilight 5:54 AM EDT 8:23 PM EDT
Nautical Twilight 5:20 AM EDT 8:57 PM EDT
Astronomical Twilight 4:44 AM EDT 9:33 PM EDT
Moon No Moon Rise 9:29 AM EDT (4/23)
Length of Visible Light 14h 28m
Length of Day
13h 32m
Waning Gibbous, 80% of the Moon is Illuminated
Apr 23
Waning Gibbous
Apr 26
Last Quarter
May 4
New
May 11
First Quarter
May 18
Full

Hourly Weather History & Observations

Time (EDT) Temp. Windchill Dew Point Humidity Pressure Visibility Wind Dir Wind Speed Gust Speed Precip Events Conditions
12:15 AM 51.8 °F - 50.0 °F 94% 30.10 in 10.0 mi West 5.8 mph - N/A   Clear
12:35 AM 57.2 °F - 50.0 °F 77% 30.10 in 10.0 mi West 3.5 mph - N/A   Clear
12:55 AM 51.8 °F - 50.0 °F 94% 30.10 in 10.0 mi West 5.8 mph - N/A   Clear
1:15 AM 55.4 °F - 48.2 °F 77% 30.10 in 10.0 mi West 3.5 mph - N/A   Clear
1:35 AM 55.4 °F - 50.0 °F 82% 30.10 in 10.0 mi WSW 4.6 mph - N/A   Clear
1:55 AM 55.4 °F - 50.0 °F 82% 30.10 in 10.0 mi Calm Calm - N/A   Clear
2:15 AM 57.2 °F - 50.0 °F 77% 30.10 in 10.0 mi SW 3.5 mph - N/A   Clear
2:35 AM 55.4 °F - 48.2 °F 77% 30.09 in 10.0 mi Calm Calm - N/A   Clear
2:55 AM 53.6 °F - 48.2 °F 82% 30.08 in 10.0 mi SW 3.5 mph - N/A   Clear
3:15 AM 51.8 °F - 48.2 °F 88% 30.08 in 10.0 mi Calm Calm - N/A   Clear
3:35 AM 51.8 °F - 50.0 °F 94% 30.07 in 10.0 mi Calm Calm - N/A   Clear
3:55 AM 51.8 °F - 48.2 °F 88% 30.07 in 10.0 mi Calm Calm - N/A   Clear
4:15 AM 50.0 °F - 48.2 °F 94% 30.07 in 10.0 mi Calm Calm - N/A   Clear
4:35 AM 51.8 °F - 48.2 °F 88% 30.07 in 10.0 mi NNW 3.5 mph - N/A   Clear
4:55 AM 50.0 °F - 48.2 °F 94% 30.07 in 10.0 mi North 3.5 mph - N/A   Clear
5:15 AM 48.2 °F - 46.4 °F 93% 30.07 in 10.0 mi NW 3.5 mph - N/A   Clear
5:35 AM 46.4 °F 45.2 °F 46.4 °F 100% 30.08 in 10.0 mi WSW 3.5 mph - N/A   Clear
5:55 AM 50.0 °F - 46.4 °F 87% 30.08 in 10.0 mi West 5.8 mph - N/A   Clear
6:15 AM 50.0 °F - 48.2 °F 94% 30.08 in 10.0 mi West 5.8 mph - N/A   Clear
6:35 AM 50.0 °F - 48.2 °F 94% 30.08 in 10.0 mi West 4.6 mph - N/A   Clear
6:55 AM 50.0 °F - 48.2 °F 94% 30.09 in 10.0 mi West 4.6 mph - N/A   Clear
7:15 AM 51.8 °F - 48.2 °F 88% 30.08 in 10.0 mi West 3.5 mph - N/A   Clear
7:35 AM 53.6 °F - 50.0 °F 88% 30.08 in 10.0 mi Calm Calm - N/A   Clear
7:55 AM 59.0 °F - 50.0 °F 72% 30.08 in 10.0 mi Calm Calm - N/A   Clear
8:15 AM 60.8 °F - 50.0 °F 68% 30.08 in 10.0 mi Calm Calm - N/A   Clear
8:35 AM 62.6 °F - 50.0 °F 63% 30.08 in 10.0 mi Calm Calm - N/A   Clear
8:55 AM 64.4 °F - 51.8 °F 64% 30.07 in 10.0 mi Calm Calm - N/A   Clear
9:15 AM 66.2 °F - 51.8 °F 60% 30.07 in 10.0 mi Calm Calm - N/A   Clear
9:35 AM 68.0 °F - 50.0 °F 52% 30.06 in 10.0 mi Calm Calm - N/A   Clear
9:55 AM 69.8 °F - 51.8 °F 53% 30.05 in 10.0 mi Calm Calm - N/A   Clear
10:15 AM 71.6 °F - 50.0 °F 46% 30.05 in 10.0 mi Calm Calm - N/A   Clear
10:35 AM 71.6 °F - 46.4 °F 41% 30.05 in 10.0 mi SSE 3.5 mph - N/A   Clear
10:55 AM 73.4 °F - 48.2 °F 41% 30.04 in 10.0 mi Calm Calm - N/A   Clear
11:15 AM 73.4 °F - 48.2 °F 41% 30.03 in 10.0 mi South 6.9 mph - N/A   Clear
11:35 AM 77.0 °F - 50.0 °F 39% 30.02 in 10.0 mi West 4.6 mph - N/A   Clear
11:55 AM 77.0 °F - 50.0 °F 39% 30.01 in 10.0 mi WSW 4.6 mph - N/A   Clear
12:15 PM 77.0 °F - 50.0 °F 39% 30.00 in 10.0 mi SSE 5.8 mph - N/A   Clear
12:35 PM 78.8 °F - 50.0 °F 36% 29.98 in 10.0 mi SSE 5.8 mph - N/A   Clear
12:55 PM 78.8 °F - 50.0 °F 36% 29.96 in 10.0 mi South 4.6 mph - N/A   Clear
1:15 PM 80.6 °F - 50.0 °F 34% 29.95 in 10.0 mi SSE 5.8 mph - N/A   Clear
1:35 PM 80.6 °F - 51.8 °F 37% 29.95 in 10.0 mi SSW 11.5 mph 16.1 mph N/A   Clear
1:55 PM 80.6 °F - 50.0 °F 34% 29.94 in 10.0 mi South 10.4 mph 18.4 mph N/A   Clear
2:15 PM 80.6 °F - 50.0 °F 34% 29.93 in 10.0 mi South 11.5 mph 17.3 mph N/A   Clear
2:35 PM 80.6 °F - 51.8 °F 37% 29.92 in 10.0 mi South 11.5 mph 17.3 mph N/A   Clear
2:55 PM 82.4 °F - 50.0 °F 32% 29.91 in 10.0 mi South 12.7 mph - N/A   Clear
3:15 PM 82.4 °F - 51.8 °F 35% 29.90 in 10.0 mi SW 8.1 mph - N/A   Clear
3:35 PM 82.4 °F - 51.8 °F 35% 29.88 in 10.0 mi South 9.2 mph 17.3 mph N/A   Clear
3:55 PM 84.2 °F - 51.8 °F 33% 29.87 in 10.0 mi South 9.2 mph 19.6 mph N/A   Clear
4:15 PM 84.2 °F - 51.8 °F 33% 29.85 in 10.0 mi South 11.5 mph 18.4 mph N/A   Clear
4:35 PM 84.2 °F - 51.8 °F 33% 29.85 in 10.0 mi SSW 13.8 mph 21.9 mph N/A   Clear
4:55 PM 84.2 °F - 51.8 °F 33% 29.84 in 10.0 mi South 15.0 mph 18.4 mph N/A   Clear
5:15 PM 84.2 °F - 51.8 °F 33% 29.83 in 10.0 mi South 12.7 mph 18.4 mph N/A   Clear
5:35 PM 84.2 °F - 53.6 °F 35% 29.83 in 10.0 mi SSW 9.2 mph - N/A   Clear
5:55 PM 82.4 °F - 53.6 °F 37% 29.83 in 10.0 mi South 10.4 mph 21.9 mph N/A   Clear
6:15 PM 82.4 °F - 53.6 °F 37% 29.83 in 10.0 mi SSW 16.1 mph - N/A   Clear
6:35 PM 82.4 °F - 51.8 °F 35% 29.82 in 10.0 mi South 17.3 mph - N/A   Clear
6:55 PM 82.4 °F - 53.6 °F 37% 29.81 in 10.0 mi SSW 11.5 mph - N/A   Clear
7:15 PM 80.6 °F - 53.6 °F 39% 29.82 in 10.0 mi SSW 5.8 mph - N/A   Clear
7:35 PM 80.6 °F - 53.6 °F 39% 29.82 in 10.0 mi South 6.9 mph - N/A   Scattered Clouds
7:55 PM 78.8 °F - 53.6 °F 42% 29.82 in 10.0 mi South 6.9 mph - N/A   Mostly Cloudy
8:15 PM 77.0 °F - 53.6 °F 44% 29.82 in 10.0 mi South 5.8 mph - N/A   Scattered Clouds
8:35 PM 77.0 °F - 53.6 °F 44% 29.82 in 10.0 mi SSW 5.8 mph - N/A   Clear
8:55 PM 77.0 °F - 53.6 °F 44% 29.82 in 10.0 mi SSW 3.5 mph - N/A   Clear
9:15 PM 73.4 °F - 53.6 °F 50% 29.82 in 10.0 mi WSW 4.6 mph - N/A   Clear
9:35 PM 73.4 °F - 53.6 °F 50% 29.81 in 10.0 mi SSW 6.9 mph - N/A   Scattered Clouds
9:55 PM 73.4 °F - 53.6 °F 50% 29.81 in 10.0 mi SW 5.8 mph - N/A   Scattered Clouds
10:15 PM 71.6 °F - 55.4 °F 57% 29.81 in 10.0 mi West 3.5 mph - N/A   Scattered Clouds
10:35 PM 69.8 °F - 55.4 °F 60% 29.81 in 10.0 mi West 6.9 mph - N/A   Clear
10:55 PM 68.0 °F - 55.4 °F 64% 29.81 in 10.0 mi West 5.8 mph - N/A   Scattered Clouds
11:15 PM 69.8 °F - 55.4 °F 60% 29.81 in 10.0 mi North 6.9 mph - N/A   Scattered Clouds
11:35 PM 69.8 °F - 55.4 °F 60% 29.81 in 10.0 mi NNW 3.5 mph - N/A   Scattered Clouds
11:55 PM 69.8 °F - 55.4 °F 60% 29.81 in 10.0 mi NNW 5.8 mph - N/A   Mostly Cloudy